RH
100 100 99 100 100 99 99 99 99 99 100 100 100 100 100 100 100 100 100 100 100 100 100 100 100 100 100 100 100 100 99 99 99 99 99 99 99 99 98 97 96 95 93 92 92 93 95 94 91 86 81 77 75 73 72 72 72 72 70 60 50 41 35 34 34 34 33 30 27 24 23 22 22 23 25 28 32 36 42 50 61 74 90 93 95 95
100 100 99 100 100 99 99 99 99 99 99 100 100 100 100 100 100 100 100 100 100 100 100 100 100 100 100 100 100 100 100 100 100 99 99 99 99 98 97 95 94 93 92 93 94 95 94 90 85 80 76 74 73 73 72 73 71 67 57 45 36 30 29 29 29 29 27 24 22 20 20 20 21 22 24 28 33 39 46 56 67 79 90 93 94 94
100 100 100 100 99 99 99 99 99 99 99 100 100 100 100 100 100 100 100 100 100 100 100 100 100 100 100 100 100 100 100 99 99 99 99 98 97 96 95 93 93 93 93 94 94 93 89 84 80 77 75 74 73 73 74 72 65 55 41 32 27 26 27 27 25 23 21 20 19 18 18 19 21 23 26 31 37 44 52 60 67 74 83 87 90 92
100 100 100 100 100 99 99 99 99 99 100 100 100 100 100 100 100 100 100 100 100 100 100 100 100 100 100 100 100 100 100 100 99 99 98 97 96 95 94 94 94 94 94 93 91 87 83 79 78 76 75 75 74 73 71 64 52 40 30 27 26 27 26 24 22 20 18 17 17 17 18 20 22 25 29 35 41 47 54 59 62 65 70 73 80 85
99 99 100 100 100 99 99 99 99 99 99 99 100 100 100 100 100 100 100 100 100 100 100 100 100 100 100 100 100 100 100 100 100 99 98 97 97 96 96 96 96 95 92 89 85 82 79 78 77 76 76 75 73 70 62 50 39 31 27 28 27 26 24 21 19 18 17 16 17 17 19 21 25 29 35 39 43 47 51 54 57 58 58 60 67 76
99 100 100 100 100 99 100 99 99 99 99 99 99 99 100 100 100 100 100 100 100 100 100 100 100 100 100 100 100 100 100 100 100 100 99 99 99 99 98 97 95 92 88 85 82 80 79 79 78 77 76 73 68 60 49 38 32 29 29 29 27 25 22 20 18 17 17 16 17 18 20 25 29 34 38 42 44 46 49 50 51 51 51 51 57 66
99 100 100 100 100 100 99 99 100 100 100 99 99 99 99 99 99 99 99 99 100 100 100 100 100 100 100 100 100 100 100 100 100 100 100 99 99 98 97 95 92 89 85 83 82 81 80 79 77 75 73 67 58 49 39 34 32 31 30 29 26 23 20 19 18 17 17 17 18 20 23 29 33 37 40 42 44 45 45 45 45 44 43 43 47 53
99 100 100 100 100 100 99 99 99 100 100 100 100 99 99 99 99 99 99 99 99 99 99 100 100 100 100 100 100 100 100 100 99 99 99 99 99 98 96 94 91 88 86 84 83 81 79 77 75 71 66 58 49 42 36 35 34 32 30 27 24 22 20 19 18 17 17 18 20 23 27 31 35 38 40 41 41 41 39 38 38 38 38 39 40 43
99 100 100 100 100 100 99 99 99 99 100 100 100 99 99 99 99 99 99 99 99 99 99 99 99 99 100 100 99 99 99 100 99 99 99 99 98 97 96 94 92 89 87 85 82 80 77 74 70 66 59 51 45 40 37 36 35 32 29 26 23 21 20 19 18 18 19 21 23 27 31 33 35 37 39 40 40 39 36 34 34 35 35 35 35 35
99 100 100 100 100 99 100 99 99 99 99 100 100 99 99 99 99 99 99 99 98 98 99 99 99 99 99 99 99 99 99 99 99 99 99 99 98 97 96 95 93 90 87 84 81 77 73 70 66 62 55 49 43 40 38 37 34 32 28 25 22 21 19 19 19 20 21 24 27 29 33 34 36 38 41 41 40 37 34 33 33 32 31 30 28 27
99 99 100 99 99 99 100 100 99 99 99 99 99 99 99 99 99 99 99 99 99 98 98 99 99 99 99 99 99 99 99 99 99 99 99 99 98 97 96 94 92 90 87 84 80 76 71 68 65 61 55 48 43 39 37 36 34 31 28 25 22 20 19 20 21 22 24 27 29 31 33 35 38 40 42 40 37 34 31 31 30 29 26 24 22 21
99 99 100 100 100 99 99 99 99 99 99 99 99 99 99 99 98 98 99 99 99 99 99 98 99 99 99 98 99 99 99 99 99 99 99 99 98 97 95 94 93 91 88 85 81 77 73 70 67 63 56 48 43 39 37 35 33 30 27 24 22 20 20 21 23 25 27 28 30 32 34 37 39 41 40 37 33 30 28 27 26 24 21 20 19 19
98 98 99 99 99 99 99 99 99 99 99 98 98 97 99 99 99 99 99 99 99 99 99 99 99 98 98 98 99 99 99 99 99 99 99 99 98 97 95 95 95 94 91 88 85 82 78 74 69 63 55 48 43 39 37 34 31 28 25 23 22 22 22 24 25 27 28 29 31 33 36 37 38 37 35 32 29 27 26 23 22 20 19 18 18 19
98 98 98 98 99 99 99 99 99 98 98 97 97 98 99 99 99 99 99 99 99 99 99 99 99 99 99 98 99 99 99 99 99 99 99 99 98 97 96 97 97 95 92 90 88 85 80 75 69 64 56 49 44 41 38 34 30 27 24 23 23 24 25 26 27 28 29 31 33 35 37 36 35 33 30 28 27 25 23 21 20 18 17 17 18 20
97 98 97 97 98 98 99 98 98 97 97 98 99 99 100 100 99 99 99 99 99 99 99 99 99 99 99 99 99 99 99 99 99 99 99 99 99 98 97 98 97 96 92 90 88 84 77 71 67 63 58 52 47 43 39 34 29 26 24 24 25 27 28 28 28 29 30 32 35 37 37 34 32 29 28 26 25 23 21 20 18 17 17 18 20 24
96 96 96 97 97 98 98 98 97 98 99 99 99 99 99 99 99 99 99 99 99 99 99 99 99 99 99 99 99 99 99 99 99 99 99 99 99 99 97 97 96 95 91 88 85 80 74 70 67 64 61 57 52 46 39 33 29 26 26 27 28 29 29 29 29 29 31 34 36 36 34 31 29 27 26 25 23 22 20 18 17 17 17 19 23 29
96 96 95 96 97 98 99 99 99 99 100 100 99 99 99 99 99 99 99 99 99 99 98 97 97 97 99 99 99 99 99 99 99 99 99 99 99 99 96 95 95 94 91 87 84 80 77 75 72 69 65 61 55 47 39 34 30 28 28 29 29 30 29 29 29 31 34 36 36 34 31 29 27 26 25 23 22 20 18 17 17 18 19 23 29 36
97 96 95 96 97 98 99 100 100 100 100 100 99 99 99 100 99 99 99 99 99 98 97 95 95 95 96 98 99 99 99 99 99 99 99 99 99 99 97 94 93 92 91 88 87 85 82 79 76 72 67 62 54 46 39 35 32 31 31 31 30 30 29 30 31 34 36 36 34 32 29 28 26 25 23 22 20 19 17 17 18 20 22 28 36 44
97 96 96 96 97 98 100 100 100 100 100 100 100 100 99 99 99 99 99 99 98 97 96 96 95 94 95 97 99 99 99 99 98 98 99 99 99 98 97 93 92 91 90 90 90 89 86 82 78 72 67 60 53 46 40 37 35 33 32 31 30 30 30 32 34 36 37 35 32 30 28 26 25 23 22 20 19 18 18 18 20 23 28 35 44 52
97 97 97 97 97 99 100 100 99 99 99 99 99 100 100 100 100 100 99 99 98 97 96 95 96 96 97 99 99 99 99 99 98 98 98 98 97 97 95 92 90 89 89 90 93 93 88 83 79 73 65 58 51 46 41 38 36 34 33 32 31 31 32 35 36 37 36 33 30 28 27 25 24 22 20 19 18 18 18 20 22 27 34 43 52 60
97 97 97 97 97 98 99 99 99 98 98 99 99 100 100 100 100 100 99 99 99 98 97 97 98 99 99 99 99 99 99 98 97 97 97 97 96 95 94 91 89 88 89 92 93 91 86 80 73 67 61 55 50 45 41 39 37 35 33 32 32 33 35 37 37 36 33 31 29 27 26 24 22 20 18 18 18 19 20 22 27 33 41 51 60 67
96 98 98 98 98 98 99 99 99 98 98 98 99 99 99 99 99 100 100 100 99 99 99 99 99 99 99 99 99 99 99 97 96 95 95 95 94 94 92 89 88 88 91 93 93 90 83 75 69 64 60 55 50 45 41 39 37 36 35 34 34 35 37 38 37 34 31 29 28 26 24 22 20 19 18 18 19 20 22 26 32 40 49 58 66 73
95 96 97 98 98 99 100 100 100 99 99 99 99 99 99 98 99 99 99 100 100 100 100 100 99 99 99 99 99 99 99 97 95 94 93 92 92 91 89 86 86 87 91 95 95 91 83 74 69 65 61 54 49 45 41 39 38 37 36 35 36 37 38 37 35 32 30 28 27 25 22 20 19 18 18 19 20 22 24 30 38 47 56 64 72 77
94 95 96 96 97 98 99 99 100 100 100 100 99 99 99 99 99 99 99 99 99 99 99 99 99 100 99 99 99 99 99 97 95 93 93 94 93 90 86 83 84 87 92 95 95 91 83 75 70 65 59 53 47 44 42 40 39 38 37 37 37 38 37 35 33 31 29 27 25 23 20 19 18 18 20 21 22 25 29 36 45 54 62 70 76 80
95 95 95 95 96 97 98 98 99 99 99 99 99 99 99 99 99 99 99 99 99 99 99 99 99 99 99 99 99 99 99 98 96 94 93 95 94 91 86 83 84 88 93 95 93 89 81 77 72 66 57 50 46 44 43 42 40 39 38 38 38 37 36 34 32 30 29 26 24 21 19 18 19 20 22 23 25 29 34 43 52 60 68 74 79 82
97 97 96 95 96 96 97 97 98 98 99 99 98 98 98 98 99 99 99 99 99 99 98 98 98 98 99 98 99 99 99 99 97 95 92 94 95 94 89 85 86 89 92 94 92 88 84 81 76 69 57 50 47 46 45 44 42 41 40 39 39 37 36 33 31 29 28 25 22 20 18 19 20 22 23 25 29 34 42 50 58 66 73 78 81 83
99 99 98 97 97 97 97 98 98 98 98 98 98 97 97 97 98 99 99 99 99 98 97 96 96 96 98 98 98 99 99 99 98 96 93 93 95 95 93 89 88 89 90 91 90 87 85 82 77 70 57 52 50 49 47 45 43 41 40 40 39 37 35 32 31 29 26 23 20 19 19 20 22 24 25 28 34 41 49 57 64 71 77 80 82 84
100 99 99 99 99 98 98 98 98 98 98 98 97 97 96 96 96 98 99 99 98 97 96 95 95 95 96 97 98 98 99 99 98 96 93 92 94 96 95 91 89 88 88 87 86 84 82 80 76 69 58 54 52 50 48 45 42 41 40 39 38 36 33 32 29 27 24 21 20 19 20 22 24 26 27 32 40 48 57 63 70 75 80 83 84 85
100 100 100 99 99 99 99 99 99 99 99 98 98 97 96 95 95 96 98 97 97 97 97 96 95 95 95 97 98 98 99 99 98 97 94 93 94 96 95 92 89 87 86 85 83 81 79 78 74 68 59 56 54 51 47 45 42 40 39 39 37 35 33 30 28 25 22 20 20 20 22 24 25 27 30 37 46 55 63 69 75 79 82 84 86 87
100 100 99 99 99 99 99 99 99 99 99 99 99 99 98 97 96 95 96 96 96 97 97 97 96 96 95 96 96 97 97 98 98 97 94 93 94 95 94 91 88 85 82 82 83 82 79 77 73 68 60 58 55 52 47 44 42 40 40 38 37 34 32 29 26 23 20 20 20 22 24 25 26 29 34 43 53 61 69 74 79 82 84 86 87 88
100 100 99 99 99 99 99 99 99 99 99 99 99 99 99 99 98 97 97 96 96 96 97 97 97 96 96 94 94 94 95 97 97 96 95 92 93 93 92 91 87 83 80 82 84 85 82 78 73 68 62 59 56 51 46 43 42 40 40 38 36 34 30 27 24 21 20 21 22 23 25 26 28 31 39 49 58 66 73 78 81 84 85 87 88 89
100 100 100 100 99 99 99 99 99 99 99 99 99 99 99 99 99 99 98 98 97 97 96 97 97 96 95 93 93 93 94 96 96 95 95 92 92 92 90 90 88 85 82 84 84 85 84 80 74 68 63 60 55 50 46 43 42 40 40 38 36 32 28 25 22 21 21 22 23 25 26 27 30 36 45 55 63 70 77 80 83 85 86 88 89 91
100 100 100 100 99 99 99 99 99 99 99 100 100 100 99 99 99 99 99 99 99 98 96 96 97 97 95 94 95 96 97 97 96 95 94 92 92 91 91 91 90 88 86 86 83 81 81 80 76 70 65 61 55 50 46 44 42 41 40 37 34 30 26 23 21 21 21 23 24 25 26 27 33 41 51 60 68 74 79 81 83 85 87 89 90 92
100 100 100 100 99 99 99 99 99 99 99 99 99 99 99 99 99 99 99 99 99 98 96 95 95 96 96 97 98 98 98 97 96 96 95 92 91 92 92 92 92 90 88 85 80 77 77 77 74 69 64 60 55 50 46 44 42 41 39 36 32 27 23 21 20 21 22 24 25 25 25 29 36 46 56 64 71 77 81 82 83 85 87 89 91 93
100 100 100 100 100 99 99 99 99 99 99 99 99 99 99 99 100 100 99 99 99 98 97 95 95 94 95 96 97 98 98 97 96 96 97 93 92 92 94 94 92 90 87 81 77 74 75 75 71 65 61 57 54 50 46 44 43 41 39 34 29 25 22 21 21 22 23 24 24 24 24 30 40 50 60 68 75 79 82 82 83 85 87 89 92 94
100 100 100 100 100 100 100 99 99 99 99 99 99 99 100 100 100 100 100 99 99 98 98 97 95 95 93 93 93 94 95 94 95 95 98 95 93 92 94 94 92 89 85 78 74 73 75 74 69 62 55 53 51 49 46 45 44 41 38 32 28 25 24 24 24 24 25 24 23 23 25 34 44 55 65 72 78 81 82 83 84 85 87 90 92 95
100 99 99 100 100 100 100 100 100 100 100 99 99 99 99 100 100 100 100 99 99 99 98 98 97 96 95 94 93 93 93 93 93 94 96 96 94 92 93 93 92 88 83 76 73 72 72 70 65 59 53 53 51 48 45 46 44 40 35 32 29 28 28 28 28 28 28 26 25 25 28 38 50 60 68 75 79 82 83 84 85 86 88 90 93 95
100 99 99 99 100 100 100 100 100 100 100 100 100 99 99 99 99 99 99 99 99 99 99 99 99 98 98 97 97 96 95 95 94 94 95 96 95 93 92 92 90 87 82 75 71 68 66 64 65 65 63 62 57 51 46 45 43 40 36 33 31 31 31 32 33 33 31 28 26 27 32 44 55 64 71 76 79 82 84 85 86 87 89 91 93 95
100 100 99 99 100 100 100 100 100 100 100 100 100 100 100 99 99 99 99 99 99 99 99 100 100 99 99 99 98 98 98 97 96 96 96 96 96 94 92 90 88 84 79 74 69 65 60 56 57 62 68 68 62 54 48 46 44 42 39 36 35 34 35 37 38 37 33 29 27 29 37 50 60 69 74 78 80 82 84 86 87 89 91 92 94 95
100 100 100 100 100 100 100 100 100 100 100 100 100 100 100 100 99 99 99 99 99 99 100 100 99 99 99 99 99 98 98 98 98 97 97 96 95 94 91 88 85 80 75 70 66 62 57 51 50 50 53 56 55 52 50 49 47 44 41 40 41 43 42 42 42 40 35 31 30 34 42 55 65 73 77 79 81 82 84 86 88 91 93 95 96 97
100 100 100 100 100 100 100 100 100 100 100 100 100 100 99 100 100 100 99 99 99 99 99 100 99 99 99 98 98 98 98 99 99 98 97 96 95 92 89 85 81 75 69 65 62 59 55 50 47 47 45 46 48 50 53 54 53 48 43 44 46 48 47 47 45 41 36 34 36 40 48 59 68 75 79 80 81 83 85 88 90 92 94 96 98 98
100 100 100 100 100 100 100 100 100 100 100 100 100 100 100 100 100 100 100 100 100 100 100 99 99 99 99 99 99 98 98 99 98 98 97 95 93 89 86 82 76 70 64 60 57 54 51 48 45 45 44 45 49 55 62 60 54 49 45 47 48 48 46 48 46 42 38 39 43 48 55 63 70 76 79 80 81 84 87 89 91 93 95 97 98 99
100 100 100 100 100 100 100 100 100 100 100 100 100 100 100 100 100 99 99 99 100 100 100 99 98 98 98 97 97 97 97 97 97 96 95 93 90 87 84 78 73 68 64 59 56 54 52 48 45 44 43 42 46 54 62 58 54 51 51 50 49 48 45 47 46 44 43 46 50 55 61 67 73 77 80 81 83 85 88 90 92 94 96 97 98 99
100 100 100 100 100 100 100 100 100 100 100 100 100 100 100 100 100 100 99 99 99 99 99 99 98 97 97 96 96 96 96 97 96 95 93 91 89 85 80 75 70 67 65 58 55 54 54 52 51 49 47 44 45 48 52 53 53 54 53 52 52 52 53 52 49 47 48 52 57 62 66 71 74 78 81 83 85 87 90 92 93 95 96 98 98 99
100 100 99 99 99 100 100 100 99 99 100 100 100 99 99 100 100 100 99 99 99 99 99 98 97 97 96 96 95 96 96 96 96 95 93 90 87 83 79 73 69 65 60 55 52 50 51 54 57 56 53 47 45 46 49 53 56 57 58 58 57 56 54 53 51 50 52 57 62 67 71 74 77 79 82 84 86 88 91 92 94 96 97 98 98 99
100 100 99 99 99 99 99 99 99 99 99 99 99 99 99 99 99 99 99 98 98 98 98 98 97 96 96 96 96 96 96 96 96 96 94 90 86 82 77 72 67 62 57 54 51 49 47 51 54 56 55 51 50 51 53 55 58 61 62 63 61 58 55 53 52 53 56 61 65 70 74 77 80 82 84 85 87 89 91 93 95 97 98 98 99 99
100 100 99 99 99 99 98 99 99 99 99 99 98 98 99 99 99 99 99 98 98 98 98 98 97 96 96 96 96 96 96 96 96 96 96 92 87 83 78 73 69 65 62 60 58 55 54 53 52 52 50 53 58 62 62 60 60 61 63 62 59 55 53 54 54 55 59 63 68 73 77 79 81 83 84 85 87 90 92 94 96 97 98 99 99 99
100 100 99 99 99 98 98 98 98 99 98 98 98 98 98 99 99 99 99 99 98 98 98 97 97 96 96 96 96 96 96 96 96 96 97 95 91 87 83 79 77 74 72 69 66 64 62 60 56 52 46 49 57 65 67 63 62 61 62 59 56 54 56 57 57 57 60 66 70 75 78 80 82 83 84 86 88 90 92 94 96 98 99 99 99 99
100 100 99 99 99 98 98 98 98 98 98 98 97 97 97 98 98 99 98 98 98 98 97 97 96 96 96 96 96 96 96 96 96 96 97 96 94 92 89 86 83 81 78 75 72 69 66 63 60 56 51 49 54 62 65 64 62 61 59 57 56 57 59 58 58 58 62 67 72 76 79 82 83 84 85 86 88 90 92 94 96 97 99 99 99 100
100 100 99 99 99 98 98 98 98 98 98 97 97 97 97 97 98 98 98 98 98 98 97 97 96 96 96 96 96 96 96 96 96 96 96 96 95 94 92 88 85 82 80 77 74 70 68 68 68 67 65 63 63 64 65 65 63 61 60 60 60 61 61 59 58 59 63 68 73 77 79 81 83 85 85 86 87 90 92 94 96 97 98 99 99 100
100 99 99 99 99 98 98 98 98 98 98 97 97 97 97 97 97 97 98 98 98 98 97 97 96 95 95 96 96 96 96 96 96 96 96 96 96 94 92 88 84 81 79 76 72 70 69 73 76 77 78 79 76 73 69 67 63 62 63 65 65 63 61 59 58 59 64 69 74 77 78 80 83 85 86 87 88 89 92 94 96 98 98 99 99 99
Wind_Speed
13 14 16 20 23 26 27 28 29 28 28 29 32 34 34 34 33 32 31 30 30 31 31 32 33 34 34 35 36 37 38 38 39 39 38 38 37 35 33 31 28 25 23 21 21 21 21 20 19 17 16 15 14 13 13 12 11 11 10 10 9 8 7 6 5 5 5 5 5 6 6 7 8 9 9 10 11 11 11 12 12 13 14 15 16 17
15 16 16 18 21 24 25 28 30 30 30 30 31 32 33 33 32 31 30 31 32 33 34 35 36 37 37 37 38 38 39 39 39 39 38 36 34 32 30 27 25 23 22 22 22 22 21 20 18 17 17 16 15 14 13 12 11 11 10 9 8 7 6 5 4 4 4 4 5 5 6 7 8 8 9 10 10 10 11 11 12 13 14 15 16 17
13 14 14 16 19 21 23 26 29 30 31 31 31 31 32 33 33 33 33 33 33 34 35 37 37 38 39 39 39 40 40 39 38 37 35 33 31 29 27 26 25 24 23 23 23 22 21 20 19 18 17 16 15 14 13 12 11 10 9 8 7 6 5 4 4 3 4 4 4 5 6 7 8 8 9 9 10 10 11 11 12 13 14 15 17 18
10 10 12 14 17 20 22 25 27 28 30 31 31 31 33 34 35 35 35 35 34 35 36 38 38 38 38 38 39 39 39 37 36 34 32 30 29 27 26 26 25 25 24 24 23 22 21 20 19 18 17 15 14 13 12 11 10 9 8 7 6 5 4 3 2 2 2 3 4 5 6 7 8 8 8 9 9 10 11 12 12 14 15 16 17 18
9 10 11 13 14 16 19 23 25 27 28 29 30 31 33 34 35 35 35 35 34 35 36 37 37 37 36 36 36 35 35 34 32 31 30 28 28 27 26 26 26 25 25 24 23 22 21 20 19 17 16 15 14 13 12 10 9 8 7 6 5 4 3 2 1 1 2 3 4 5 6 7 7 8 8 9 9 10 11 12 13 14 15 16 17 19
9 11 13 13 14 15 18 20 24 26 28 28 29 31 32 33 34 34 34 34 34 34 35 35 35 35 35 34 33 32 31 31 30 29 28 28 27 27 27 26 26 26 25 24 23 22 21 20 18 16 15 14 13 12 11 10 8 7 6 5 4 3 2 1 0 1 2 3 4 5 6 6 7 7 8 9 9 10 11 12 14 15 16 17 18 19
9 13 15 16 17 18 19 20 23 27 29 30 30 30 31 32 32 33 33 33 34 34 34 34 34 34 33 33 32 31 30 29 29 29 28 28 27 27 27 26 26 26 25 24 23 22 20 18 17 16 15 14 12 11 10 9 8 7 6 5 3 2 1 1 1 2 3 3 4 5 6 6 7 7 8 9 10 11 12 13 14 16 17 18 19 20
10 14 17 18 19 19 20 20 22 26 30 32 31 30 30 30 30 31 31 32 33 33 34 33 33 33 32 32 32 31 30 30 29 28 28 27 27 27 26 26 25 25 24 23 22 20 19 17 16 15 14 13 12 10 9 8 7 6 5 4 3 2 2 2 2 2 3 3 4 5 5 6 7 7 8 9 10 11 13 14 15 17 18 19 20 20
13 13 15 17 18 19 18 18 20 24 27 30 32 31 30 29 29 29 30 29 30 32 33 34 33 32 32 32 32 32 31 31 30 29 29 28 27 26 25 25 24 23 22 21 20 18 17 16 15 14 14 12 11 10 9 8 6 6 5 4 3 3 2 2 2 2 3 3 4 4 5 6 6 7 8 9 11 12 14 15 16 18 19 20 20 21
14 14 13 14 17 19 18 17 18 21 24 26 29 31 32 31 30 28 27 26 26 29 32 33 33 32 32 32 33 33 32 31 30 29 29 28 27 26 25 24 23 22 21 19 18 17 16 15 15 14 13 12 11 9 8 7 6 5 4 4 3 3 2 2 2 2 3 3 4 4 5 5 6 7 9 10 11 13 14 16 17 18 19 20 21 21
12 13 13 13 15 18 19 19 19 21 23 24 25 27 30 31 31 28 24 22 23 25 28 30 31 31 32 32 32 33 32 31 30 29 28 27 26 25 24 23 21 20 19 18 17 16 15 15 14 14 13 12 10 9 8 7 6 5 4 4 4 3 3 2 2 2 3 3 4 4 4 5 6 8 9 11 12 14 15 16 18 19 20 20 20 21
12 12 13 13 14 16 17 18 20 22 24 24 21 19 19 23 27 28 25 22 23 24 25 26 28 30 31 31 32 32 32 32 31 29 28 26 25 25 24 22 21 20 19 18 17 16 15 15 14 13 12 11 10 8 7 6 5 5 4 4 4 3 3 2 2 2 3 3 3 4 4 5 6 8 9 11 13 14 16 17 18 19 20 20 20 21
13 13 12 13 14 15 16 17 18 20 22 21 18 16 14 18 23 26 25 24 24 25 26 26 25 26 28 29 31 32 32 32 31 30 28 27 25 24 24 23 22 21 20 19 18 17 15 14 13 12 11 10 9 8 7 6 5 5 5 4 4 3 3 2 2 2 2 2 3 3 4 5 7 9 10 12 13 15 16 17 18 19 19 20 20 21
12 13 12 11 11 13 15 17 17 16 17 17 17 18 19 21 24 25 25 23 24 25 27 27 25 24 24 25 28 30 32 32 31 29 28 26 25 25 25 24 23 22 21 20 19 18 16 14 13 12 10 9 8 7 7 6 6 5 5 5 4 3 3 2 2 2 2 2 2 3 5 6 8 9 11 12 14 15 16 17 18 19 19 19 20 21
12 11 10 8 9 11 14 16 16 16 16 17 19 21 23 24 26 26 25 22 23 26 27 27 25 23 22 22 24 27 30 31 31 30 28 26 25 25 25 25 24 22 21 21 19 18 15 14 12 11 9 8 8 7 7 6 6 6 5 5 4 3 2 2 2 2 1 2 3 4 5 7 8 10 11 13 14 16 17 18 18 19 19 19 20 21
13 12 9 8 9 11 14 16 16 16 17 19 22 25 25 24 25 26 25 24 24 26 24 21 18 16 15 18 22 25 28 30 30 30 28 26 24 24 25 25 24 22 21 19 18 16 14 13 11 10 9 8 7 7 6 6 6 6 5 4 3 3 2 2 2 1 1 2 3 4 6 7 9 10 12 13 15 16 17 18 18 18 19 20 21 22
11 11 11 10 10 11 13 14 14 16 18 21 25 27 27 25 26 28 27 27 25 23 21 18 11 5 6 12 18 23 26 27 28 29 29 26 24 23 23 24 24 22 20 18 16 15 14 12 11 10 9 8 7 6 6 6 6 5 5 4 3 2 2 2 1 1 1 2 4 5 7 8 10 11 13 14 15 16 17 17 18 18 19 20 22 23
10 11 11 11 11 12 13 12 13 16 20 22 23 24 25 26 28 29 29 27 24 21 20 19 14 8 7 9 15 21 26 27 28 28 27 25 23 23 23 23 23 22 20 17 16 14 13 12 11 10 9 7 6 5 5 5 5 5 4 4 3 2 2 1 1 1 2 3 4 6 7 9 10 12 13 14 15 16 17 17 18 19 20 21 22 23
11 11 11 11 12 14 14 13 14 17 20 22 23 23 21 23 25 26 26 25 23 22 20 16 15 15 14 14 18 24 27 29 29 28 24 22 22 22 23 23 23 22 20 17 15 14 13 12 11 9 8 7 6 5 5 5 5 4 4 3 3 2 2 1 1 1 2 3 5 6 8 9 11 12 13 15 15 16 17 17 18 19 21 22 23 23
13 12 12 13 15 15 14 14 16 19 21 24 24 24 22 22 23 23 22 21 21 20 19 17 15 14 15 18 22 26 27 29 29 27 23 21 21 22 23 23 23 22 20 17 16 15 14 13 11 10 8 7 6 5 5 5 4 4 3 3 2 2 1 1 1 1 3 4 5 7 8 10 11 12 14 15 15 16 17 17 19 20 21 22 23 23
12 12 13 15 16 15 15 16 19 22 24 26 25 24 23 23 22 21 20 20 19 17 15 14 13 15 19 22 24 25 27 28 26 23 19 18 19 20 22 23 23 22 20 17 16 15 14 12 11 9 8 7 6 5 5 4 4 3 3 3 2 1 1 1 1 2 3 4 6 7 9 10 12 13 14 14 15 16 17 18 19 20 21 22 23 23
13 12 13 15 15 15 15 18 21 24 26 27 25 23 22 22 21 20 20 19 17 16 15 14 16 20 24 25 25 24 24 26 25 23 19 15 15 18 21 22 23 22 19 17 15 14 13 12 10 9 7 6 6 5 5 4 4 3 2 2 2 1 1 1 1 2 3 5 6 8 9 10 12 13 13 14 15 16 17 18 20 21 22 22 22 23
14 14 14 15 15 14 14 17 21 24 26 27 26 24 24 24 23 21 20 19 18 19 20 21 23 25 26 25 24 22 22 23 25 23 18 13 13 17 21 22 22 21 18 17 15 14 13 12 10 9 8 7 6 5 5 4 3 2 2 1 1 1 1 1 2 3 4 5 7 8 9 11 12 13 13 14 15 16 17 19 20 21 21 22 23 23
15 15 15 16 16 15 15 17 20 23 24 25 24 23 23 24 24 23 22 23 23 24 26 27 26 25 24 23 22 21 21 22 23 21 15 11 13 17 20 21 21 19 18 17 16 15 13 12 11 9 8 7 6 5 4 4 3 2 1 1 1 1 1 1 2 3 4 6 7 9 10 11 12 12 13 14 15 16 18 19 20 21 21 22 23 24
15 15 16 17 18 17 16 18 20 23 24 24 23 23 23 23 23 24 24 25 25 26 27 26 23 20 19 20 20 19 20 21 21 19 16 12 13 17 19 21 20 19 17 17 16 15 14 12 10 9 7 6 6 5 4 3 2 1 1 1 1 1 1 1 2 3 5 6 7 9 10 11 12 12 13 14 15 17 18 19 20 21 21 22 23 24
15 15 16 17 18 18 18 19 21 23 25 25 25 25 25 25 25 24 24 24 25 25 24 20 16 14 16 17 17 17 19 19 19 19 19 16 15 16 17 19 19 19 17 16 15 14 13 11 10 8 7 6 5 4 3 2 1 1 1 1 1 1 1 2 2 4 5 6 8 9 10 11 12 12 13 14 15 17 18 19 20 21 22 23 24 25
13 13 14 16 17 18 18 19 21 23 25 25 26 27 28 28 27 24 22 23 24 24 20 15 10 10 12 13 14 15 18 17 16 18 22 22 18 15 16 18 19 19 18 16 13 11 10 10 9 8 7 6 4 3 3 2 2 2 2 2 2 2 2 2 3 4 5 7 8 9 10 11 11 12 13 14 15 17 18 19 20 21 22 23 25 26
11 12 13 14 16 16 17 18 20 22 24 25 26 27 29 30 27 23 20 23 25 23 19 14 11 8 8 10 12 15 18 17 16 18 22 23 18 14 17 19 20 19 18 15 12 10 8 7 7 7 7 6 5 4 3 3 2 2 2 2 2 2 2 2 3 5 6 7 8 9 10 10 11 12 13 14 15 17 18 19 20 21 23 24 26 27
10 10 12 13 14 15 16 17 19 21 23 24 25 26 28 29 28 26 26 28 26 22 17 16 14 12 11 12 13 14 15 15 17 19 22 20 16 14 19 20 20 20 18 15 11 8 6 6 6 7 7 6 5 4 3 3 3 2 2 2 2 2 2 3 4 5 6 8 8 9 10 10 11 12 13 14 15 16 18 19 20 22 23 25 26 27
10 11 12 13 13 14 16 17 18 20 21 23 24 25 26 27 27 28 30 30 27 22 17 16 16 15 15 14 11 8 9 14 18 21 22 18 15 15 19 19 20 20 18 12 7 4 3 5 7 8 7 6 5 5 4 4 3 3 3 3 3 2 3 4 5 6 7 8 8 9 9 10 11 11 13 14 15 16 17 19 20 22 24 25 26 27
13 14 15 15 15 16 17 18 19 19 20 21 22 23 24 25 25 26 28 29 27 23 20 18 18 18 18 12 7 4 6 16 21 22 21 19 17 18 21 19 19 20 19 11 5 3 2 4 8 10 9 8 6 5 5 4 3 3 3 3 3 3 3 4 6 7 7 8 8 9 9 10 11 11 13 14 15 16 17 19 20 22 23 24 26 26
15 16 17 17 18 18 19 19 20 20 20 21 22 23 24 23 23 23 25 26 25 23 22 21 21 21 20 15 9 6 8 19 25 25 23 20 20 21 22 20 20 20 19 12 7 5 3 3 8 12 11 9 7 6 5 4 4 4 4 4 3 3 4 5 6 7 7 8 8 9 9 10 11 12 13 14 15 16 18 19 20 21 23 24 25 26
17 18 19 19 19 20 20 20 21 21 21 22 22 23 23 22 21 21 23 24 23 22 22 23 22 21 19 16 11 9 13 22 28 28 25 21 20 21 22 21 20 20 18 12 8 6 4 5 8 10 11 10 9 7 5 5 4 4 4 4 4 4 5 6 7 7 7 8 8 9 9 10 11 12 13 14 15 16 18 19 20 21 22 23 23 25
18 19 20 20 20 21 21 21 21 21 21 21 21 22 21 20 19 19 21 22 21 20 21 23 23 21 18 14 11 10 13 22 28 28 25 23 21 21 23 22 22 21 18 13 9 6 6 8 10 10 9 10 9 7 6 5 5 5 5 5 5 6 6 7 7 8 8 8 8 9 10 10 11 12 13 14 15 17 19 20 21 21 21 21 22 23
19 19 20 21 21 21 21 21 21 21 20 20 20 20 19 18 18 19 20 20 19 19 19 21 22 22 21 17 14 13 16 23 28 28 25 24 23 23 23 23 24 23 20 16 12 8 7 10 12 12 10 9 8 7 6 6 5 5 5 5 6 7 7 8 8 8 8 8 8 9 10 11 12 12 13 15 16 18 19 20 21 21 21 21 21 21
19 19 20 20 21 21 21 20 20 20 20 19 19 19 19 19 19 19 20 20 19 18 18 19 20 21 21 20 18 18 21 25 28 28 25 24 24 24 23 24 26 26 22 18 15 12 11 11 12 13 12 8 5 5 6 6 6 6 6 6 7 8 8 8 8 8 8 9 9 9 10 11 12 13 14 15 17 18 19 20 21 22 22 21 20 20
18 18 19 20 21 21 21 21 21 20 20 20 20 20 20 20 20 20 20 19 19 18 18 18 19 19 18 17 16 16 19 23 27 29 27 23 22 23 24 25 27 27 23 19 18 17 15 13 11 11 9 6 4 4 6 7 7 7 8 8 9 9 9 9 8 8 9 9 9 10 10 11 12 13 14 15 16 18 20 21 21 21 21 21 21 21
17 17 18 19 20 21 21 21 21 21 22 22 22 22 22 22 21 21 20 19 19 18 18 18 18 17 15 13 11 11 14 19 26 29 28 24 20 20 24 25 26 26 23 20 20 19 18 14 10 6 5 5 6 8 9 10 9 9 9 9 10 10 10 9 9 9 9 9 9 10 10 11 11 12 14 15 17 19 21 21 22 22 22 22 22 22
16 16 17 19 20 21 22 22 22 23 23 23 23 23 23 23 22 21 20 20 19 18 18 18 17 16 14 11 10 10 13 18 24 28 28 24 20 18 20 23 25 24 21 18 18 18 19 16 12 9 8 8 10 11 12 11 10 10 10 10 10 10 10 10 9 9 9 9 10 10 10 10 11 13 14 16 18 20 22 22 22 22 22 23 24 25
17 17 17 19 20 22 23 23 24 24 24 24 24 24 24 23 23 22 21 20 19 19 18 18 17 16 14 13 12 13 15 18 22 26 26 24 20 17 16 19 23 23 20 17 16 16 17 17 16 15 14 13 12 12 11 11 11 10 10 9 9 10 10 10 10 9 9 10 10 10 10 11 12 13 15 17 19 20 21 21 21 21 22 23 25 26
17 17 18 19 21 23 24 25 25 25 25 25 25 24 24 24 23 22 21 20 19 19 18 18 18 17 16 15 14 14 15 18 21 23 24 23 19 16 14 17 20 21 20 17 16 15 15 16 17 17 17 17 16 15 13 12 10 10 9 8 8 9 10 10 10 10 10 10 10 10 11 11 13 15 16 18 19 19 20 20 20 20 21 23 24 24
18 18 19 21 22 24 24 25 25 25 25 25 25 24 24 24 24 23 22 22 21 20 19 19 19 19 19 17 16 15 16 17 19 20 20 19 17 14 14 16 19 20 19 18 16 14 13 15 16 17 18 18 18 16 14 12 11 10 10 10 9 9 9 9 9 10 11 11 11 11 11 12 14 15 16 17 18 18 18 19 19 20 21 22 23 24
18 20 22 23 24 25 25 25 25 25 25 25 25 25 24 24 25 24 24 23 23 23 22 21 21 22 22 20 18 17 16 16 16 16 16 15 14 14 15 17 19 20 19 18 16 15 13 14 15 17 17 18 19 18 15 12 11 10 9 9 8 6 4 7 9 11 11 12 12 12 12 13 14 15 16 16 17 18 18 18 19 20 21 22 23 24
20 22 23 24 25 25 25 25 26 25 25 25 24 24 24 24 24 24 25 25 25 25 24 23 23 23 23 22 20 19 18 16 16 15 15 15 15 17 18 19 19 18 18 17 17 17 15 15 15 15 16 16 17 17 16 14 12 11 10 9 9 7 6 8 10 12 13 13 13 13 13 13 13 14 15 16 17 18 19 19 20 20 21 22 23 24
21 22 23 24 24 24 25 25 25 25 25 24 24 24 24 24 24 25 26 26 26 25 25 24 23 21 20 20 20 20 20 19 18 18 18 18 18 19 20 20 19 17 16 15 15 16 17 17 17 15 15 15 16 16 16 15 13 12 11 11 10 10 11 11 12 13 14 14 14 14 14 14 14 14 15 17 18 19 20 20 20 21 22 23 24 25
22 22 22 23 23 23 24 25 25 24 24 23 24 24 24 24 24 25 26 27 26 25 24 24 22 20 18 18 19 20 20 20 20 19 19 19 20 20 20 19 18 16 15 14 14 14 15 17 18 17 16 16 15 15 14 14 13 12 11 11 11 11 11 11 13 14 15 15 15 15 15 15 15 16 17 17 18 19 20 20 20 21 22 23 24 25
21 22 22 22 22 22 22 23 24 23 23 22 23 23 24 25 25 25 26 26 25 24 22 21 21 20 19 19 19 19 19 20 20 20 19 19 20 19 19 18 16 15 14 14 14 14 14 15 15 16 17 17 15 14 13 13 12 12 11 11 11 11 11 12 13 14 15 15 15 15 15 15 16 17 18 18 18 19 19 19 20 20 21 22 23 25
21 21 21 20 20 20 20 21 22 22 22 22 22 23 23 24 25 25 25 25 24 22 20 19 20 19 19 19 19 20 20 20 20 20 20 20 20 19 19 18 16 15 15 15 16 16 15 14 13 13 14 15 15 14 13 12 11 11 11 11 11 12 12 13 13 14 15 15 15 15 16 16 17 17 17 18 18 19 19 19 19 20 21 22 23 24
21 21 20 20 19 18 18 20 21 21 21 21 21 22 22 22 23 24 24 23 22 20 19 19 19 19 18 17 18 19 20 20 21 21 22 21 21 21 20 19 19 19 19 18 18 17 17 16 14 13 12 13 14 14 13 12 11 11 11 11 12 12 12 12 13 13 14 15 15 15 15 15 15 16 17 17 17 18 18 19 19 20 21 22 23 24
21 21 20 20 19 18 17 18 19 20 20 21 21 21 21 21 21 21 22 21 20 19 19 20 20 19 18 17 18 18 19 20 21 21 21 22 23 23 23 23 23 22 21 20 19 18 17 16 15 14 13 12 12 12 11 11 11 11 11 11 12 12 12 12 12 13 13 14 14 14 14 14 14 15 16 17 17 17 18 18 19 20 21 22 23 24
20 20 21 20 19 18 18 18 18 18 19 20 20 21 20 20 20 20 20 20 19 19 19 20 20 19 18 18 18 18 19 20 20 20 21 22 23 23 24 24 24 22 20 17 15 15 14 13 11 11 11 10 10 10 10 10 10 11 12 11 11 11 11 11 11 12 12 12 13 13 13 13 14 15 16 16 16 16 16 18 18 19 20 22 23 24
Wind_Direction
138 138 136 139 141 144 150 162 167 166 165 167 170 173 176 178 180 179 177 172 169 167 166 165 165 167 169 171 171 171 169 168 167 166 166 165 165 164 165 166 168 170 172 177 182 188 191 191 190 189 187 186 185 186 187 192 197 201 204 206 207 209 212 219 231 248 265 281 293 301 307 311 313 312 311 310 309 310 314 319 324 326 325 325 327 328
141 142 140 139 139 140 145 158 163 163 160 161 164 167 168 168 168 167 167 166 166 164 162 160 160 161 162 165 167 167 166 165 164 164 164 164 164 164 165 166 168 171 175 180 185 188 188 187 184 182 184 184 185 187 190 196 201 203 204 205 207 210 216 227 241 257 274 288 301 308 313 315 315 314 314 313 315 318 321 324 326 326 326 327 329 330
137 139 142 143 143 143 145 153 158 159 158 157 158 159 160 158 157 157 158 160 161 161 159 157 157 157 158 160 162 164 164 164 164 164 164 165 165 165 165 167 170 174 178 181 184 184 181 179 179 180 182 183 185 189 194 198 200 201 201 202 205 211 221 234 250 270 286 301 313 319 320 320 319 318 318 320 321 323 324 325 326 327 328 330 331 332
133 132 135 142 144 146 149 152 154 155 155 154 153 153 152 151 150 151 154 155 156 156 155 155 155 154 154 155 158 160 162 162 163 164 164 164 164 165 166 169 172 175 177 178 178 177 175 176 177 178 180 183 187 191 194 195 195 194 194 196 199 207 217 232 254 279 306 320 326 327 325 323 321 321 322 324 324 324 324 326 328 330 332 334 335 334
135 132 130 132 134 140 148 152 153 152 150 148 147 146 146 146 146 148 150 152 151 151 151 152 153 152 152 152 154 157 159 160 161 162 163 163 164 165 167 169 171 172 172 172 171 171 172 173 175 177 179 183 187 190 190 189 187 186 186 189 193 201 210 224 254 309 333 336 334 331 328 325 324 324 324 324 324 325 326 329 332 335 337 338 338 337
137 136 135 130 127 130 139 146 148 147 144 142 141 142 142 142 143 144 144 145 146 146 147 148 149 149 149 149 151 153 155 157 159 159 160 161 162 163 164 164 165 165 165 165 166 167 169 171 173 176 179 183 185 185 183 180 178 177 179 181 184 188 193 196 348 357 352 344 339 334 330 327 325 324 323 323 325 328 331 334 337 340 341 342 341 339
139 139 138 135 131 131 134 138 142 143 141 137 135 135 135 136 137 138 139 140 141 142 142 143 143 144 144 145 146 148 150 152 153 154 155 156 157 158 158 158 158 159 160 161 163 165 167 169 172 175 177 179 179 177 174 172 170 171 171 172 172 165 148 98 40 13 358 348 341 335 330 327 324 323 323 325 329 333 336 339 342 344 345 345 343 341
132 134 135 132 130 129 131 134 138 141 141 138 134 131 128 128 128 130 132 134 136 136 136 135 135 135 136 138 141 143 144 144 145 146 147 149 150 151 152 153 154 155 157 159 161 162 165 168 170 173 175 174 172 169 166 164 164 165 165 161 155 138 110 74 40 16 360 350 342 335 330 326 324 324 326 330 334 338 341 344 346 347 347 346 345 343
133 131 132 132 130 128 128 132 137 139 140 140 138 134 129 125 123 123 124 125 127 130 131 130 128 128 131 134 137 139 140 140 140 140 142 143 144 145 147 148 150 152 154 156 158 161 163 166 168 169 170 168 165 162 161 160 160 159 157 150 137 120 98 72 42 17 360 350 340 334 330 327 327 328 331 335 339 342 346 348 349 349 348 347 346 345
137 133 131 134 135 134 131 131 135 138 139 139 139 139 137 132 127 123 119 118 121 125 128 128 127 127 129 132 135 137 137 138 139 140 141 142 142 143 144 144 146 148 151 153 155 158 161 163 164 165 165 164 161 158 157 156 155 153 147 137 125 111 94 73 42 16 360 347 339 334 331 332 332 334 336 340 343 347 349 350 351 350 350 349 349 348
134 133 129 130 133 134 133 133 136 138 138 135 133 134 136 137 135 130 124 121 122 123 124 127 128 129 129 131 134 137 137 137 137 138 140 141 142 142 142 142 143 145 147 149 151 154 157 159 161 162 162 160 158 156 154 152 151 145 136 127 117 106 95 75 44 16 359 347 340 337 337 337 337 338 341 344 348 350 352 352 352 352 352 352 352 351
137 134 131 130 129 129 129 131 135 137 136 131 126 125 128 135 138 136 132 130 127 125 123 124 127 129 132 133 135 137 138 137 136 137 138 140 141 141 140 140 140 141 143 145 147 150 154 157 159 161 161 159 156 153 151 149 145 137 129 121 113 104 92 71 42 15 359 350 343 341 340 339 340 343 345 348 352 354 355 354 354 354 355 355 354 353
142 140 135 133 132 132 131 131 132 134 136 135 134 135 135 136 136 135 132 130 129 128 126 122 122 126 132 135 137 139 139 138 137 138 138 139 140 141 140 140 140 141 143 144 145 148 153 157 160 162 161 158 154 151 149 145 139 132 124 117 110 101 88 64 37 16 3 354 346 343 341 342 345 347 351 353 355 356 356 356 357 357 357 356 355 353
140 141 138 136 137 140 142 142 142 144 147 146 145 143 142 139 134 130 125 123 124 126 126 122 121 123 129 134 138 141 141 139 138 137 137 138 141 144 144 142 143 145 147 146 147 150 156 160 162 162 161 158 154 149 145 140 134 129 122 116 108 98 80 56 35 21 10 358 348 344 343 347 350 353 355 357 358 358 358 359 359 359 359 357 356 354
145 144 143 145 149 152 153 152 152 152 152 149 144 141 138 135 132 129 124 121 122 124 124 121 119 122 127 134 139 143 143 141 138 136 135 138 143 147 148 145 144 147 150 149 150 153 160 164 165 163 161 156 150 145 140 135 131 127 121 115 107 93 75 55 42 31 16 358 348 346 349 352 356 358 359 360 360 0 1 1 1 1 360 358 356 354
154 153 152 154 158 160 160 158 155 151 147 145 143 141 137 136 135 133 130 129 128 127 125 119 115 116 125 137 143 146 145 141 138 136 135 137 143 150 152 148 145 146 150 151 152 155 161 165 166 163 157 151 145 140 135 131 128 125 120 114 103 88 71 59 53 43 18 356 350 351 355 359 1 2 2 2 2 3 3 3 2 1 0 359 357 355
158 160 160 156 158 161 162 158 153 149 147 146 146 145 145 145 143 141 139 138 137 137 138 137 133 124 127 142 147 149 148 143 139 137 135 135 142 151 156 151 145 144 149 150 152 155 161 164 164 160 153 148 143 138 132 129 126 124 118 111 100 87 76 71 68 47 11 355 355 358 2 4 5 5 4 5 5 5 5 4 3 2 1 359 358 356
162 164 163 158 157 159 160 155 151 149 149 148 148 149 149 149 148 147 146 146 147 150 153 152 153 152 150 155 157 156 151 146 140 135 133 133 139 149 156 154 148 145 146 147 151 158 163 164 162 159 153 149 145 139 132 128 125 121 116 108 99 90 87 86 74 31 5 359 1 5 7 8 7 7 7 8 8 7 5 4 3 3 1 0 359 357
167 169 165 163 161 161 159 156 153 152 152 152 151 149 147 149 150 151 151 153 155 156 157 157 156 155 154 157 159 158 154 148 142 135 130 130 137 146 154 154 149 145 144 146 152 159 163 163 161 157 154 151 147 141 135 129 125 119 113 106 100 98 98 96 62 18 5 6 8 10 11 10 10 10 10 10 9 7 6 5 4 3 2 1 360 359
170 173 173 168 164 161 161 162 162 161 160 158 155 152 149 151 152 153 155 157 158 158 156 153 150 149 148 150 154 155 154 150 142 133 128 128 135 144 152 153 148 144 143 146 153 159 163 162 159 155 152 150 146 142 136 129 123 117 111 106 104 107 106 88 37 13 10 13 14 15 13 13 13 13 13 11 10 8 6 5 5 4 3 2 1 1
169 176 179 174 169 166 167 170 170 169 166 163 158 155 153 154 155 156 157 157 155 152 148 144 141 142 145 145 148 152 153 150 142 134 129 128 134 143 151 153 149 145 142 146 153 160 164 162 159 155 151 149 146 141 133 128 120 115 110 109 109 112 107 70 29 18 19 20 19 17 15 15 16 15 14 12 10 8 6 6 5 5 4 3 3 3
172 177 181 179 177 176 175 174 174 173 171 166 162 159 159 158 158 158 157 154 150 144 137 131 135 141 144 143 146 150 153 153 147 139 133 128 132 141 150 153 150 145 142 145 152 160 164 163 159 154 151 147 143 137 130 123 118 113 111 110 112 112 101 62 35 29 26 24 21 20 19 19 19 17 15 13 10 8 6 6 6 5 5 5 5 6
181 182 184 184 185 183 179 176 175 174 173 170 168 166 165 163 160 158 156 153 147 139 133 132 135 138 140 141 144 149 153 153 149 142 132 129 136 145 150 153 151 145 143 145 151 157 162 161 159 156 152 146 140 133 127 121 115 112 110 112 112 111 91 62 46 36 31 26 24 23 22 22 21 19 16 13 10 8 7 7 6 6 6 6 7 9
191 191 191 190 190 189 185 179 176 174 173 172 171 169 166 164 161 159 157 152 145 137 132 130 129 130 133 138 142 147 152 153 150 143 132 128 138 147 151 154 150 145 144 147 151 157 160 160 159 157 151 144 138 131 126 121 118 115 110 112 112 109 91 69 53 41 33 29 27 26 25 24 22 20 17 13 10 8 7 7 7 7 7 8 9 11
201 200 198 196 195 195 193 186 180 176 175 173 171 167 164 162 159 156 153 147 140 134 130 126 123 124 132 138 142 146 151 154 153 148 134 128 135 145 153 156 152 146 144 149 155 160 161 159 157 155 150 143 138 133 130 127 128 127 126 120 119 114 101 80 57 44 36 33 30 29 28 26 24 21 17 13 10 8 8 8 8 7 7 9 11 13
211 208 204 201 199 198 196 191 186 182 180 177 174 170 166 161 156 149 142 138 135 133 130 125 125 132 139 143 146 150 154 156 158 154 143 136 135 144 155 159 155 148 144 149 156 161 161 159 158 157 153 149 145 143 142 148 152 156 152 146 138 128 113 89 61 47 39 36 34 32 31 28 25 21 17 13 11 9 9 9 8 8 8 10 12 14
216 211 207 203 200 199 197 193 189 186 185 183 180 176 170 163 154 145 139 141 143 141 136 133 133 137 140 146 151 156 159 160 161 159 153 144 139 144 156 159 155 148 143 144 149 156 158 161 163 166 165 164 163 164 169 175 179 175 171 162 153 140 122 94 64 50 44 40 37 35 33 30 26 21 17 14 12 11 11 10 10 10 10 12 13 15
214 210 205 201 199 197 195 193 191 189 188 187 185 182 177 169 159 152 154 156 154 149 143 143 144 144 146 154 159 161 162 162 161 162 161 150 142 144 156 158 155 149 140 135 136 143 152 160 170 177 180 180 183 187 189 189 187 182 175 166 156 144 121 89 65 53 47 43 40 38 34 30 25 21 17 16 14 14 13 12 11 11 12 13 14 14
204 202 199 196 193 191 190 189 188 188 189 188 187 185 183 178 172 168 168 164 159 153 149 149 150 151 151 152 154 158 163 163 163 165 166 152 143 146 155 156 155 150 142 132 126 129 144 164 181 189 194 194 194 198 197 193 186 180 172 163 154 139 113 83 65 56 50 47 43 40 36 31 27 23 20 18 18 17 16 14 13 12 13 14 14 13
181 181 181 182 182 182 182 182 182 183 185 186 185 183 183 183 182 179 175 169 164 159 154 152 151 149 145 141 141 151 170 174 170 166 166 156 148 149 155 156 157 155 148 137 121 109 135 175 190 198 203 203 203 202 197 191 182 173 165 157 146 128 100 78 66 59 53 50 46 43 38 33 29 25 23 22 21 21 20 17 16 14 14 13 13 12
166 166 165 167 170 173 175 175 176 177 178 180 181 181 183 185 187 185 178 173 170 166 160 156 153 152 149 145 142 158 184 186 177 170 170 160 154 156 158 158 161 161 158 147 127 103 134 184 194 199 203 206 206 202 194 186 176 165 156 149 138 118 94 78 69 63 58 54 50 46 41 36 32 29 27 25 25 25 24 22 19 16 14 12 11 10
162 162 161 162 165 167 169 170 171 172 174 177 180 183 186 189 190 187 181 177 175 173 166 160 158 158 159 162 164 169 178 182 178 174 176 165 158 159 162 161 162 164 163 156 140 128 133 172 191 195 199 202 202 198 188 178 167 157 148 140 127 111 93 80 73 68 64 59 54 50 45 41 37 33 31 29 29 29 29 27 23 18 14 11 8 7
161 160 160 161 163 164 166 168 169 170 173 177 181 185 188 191 192 189 184 181 181 179 173 165 161 161 163 164 162 160 168 175 175 176 178 171 162 159 164 163 162 163 164 161 150 138 136 150 172 184 192 194 193 188 180 169 159 150 142 132 121 108 95 85 79 74 69 64 58 54 49 45 41 37 35 33 33 34 33 32 28 22 17 12 8 5
159 158 158 159 160 162 163 165 167 170 173 178 182 185 187 189 189 187 184 184 186 186 183 174 167 163 161 157 147 145 159 173 175 176 179 177 167 161 164 164 163 163 163 160 155 145 137 145 152 161 174 182 182 175 167 159 151 144 136 126 116 104 95 87 81 76 71 66 61 56 53 49 45 41 38 37 36 37 36 35 31 26 21 15 9 5
157 157 157 158 158 158 159 161 164 167 171 174 178 181 183 184 183 183 183 185 187 189 188 183 177 172 169 163 154 150 161 174 177 178 181 181 173 165 164 165 166 165 162 159 154 145 136 145 149 151 153 163 167 165 158 150 142 135 128 121 110 99 91 85 79 73 68 63 59 56 54 51 47 45 42 41 40 39 38 36 33 29 25 21 15 9
156 156 156 157 156 156 156 158 160 163 165 168 172 175 177 179 179 179 181 183 186 187 186 184 183 182 183 184 179 173 173 177 180 181 185 187 181 171 165 168 170 169 164 159 153 146 140 142 146 147 145 143 146 153 153 146 137 128 120 113 103 95 88 84 78 70 63 58 56 56 54 51 49 47 46 45 44 42 40 37 33 29 27 24 22 18
157 157 158 158 157 156 155 157 159 160 161 163 167 170 172 173 173 174 176 179 182 183 182 181 182 185 189 196 199 196 187 183 183 185 187 190 188 180 171 171 173 172 168 161 153 146 141 139 140 141 136 131 132 141 145 141 133 123 114 106 97 90 84 82 77 67 57 53 53 54 53 51 49 49 49 48 46 45 42 39 34 30 28 26 26 25
160 159 160 160 160 159 157 157 158 160 161 162 163 165 167 168 168 168 170 173 175 177 176 176 177 179 184 189 195 197 191 185 185 186 188 189 192 189 180 174 173 174 175 169 161 152 145 141 140 139 129 124 127 132 135 134 127 119 111 104 97 89 81 76 70 62 54 52 54 55 54 52 51 50 49 47 46 44 41 38 35 32 28 28 29 29
163 163 162 163 162 161 160 159 160 162 163 163 163 164 164 164 163 163 163 165 166 168 168 168 167 167 167 166 165 169 176 180 183 186 187 189 192 193 187 177 173 173 176 174 169 161 153 150 149 147 139 130 128 131 134 131 126 120 113 105 96 88 80 72 63 55 51 53 58 61 61 57 54 52 49 46 43 40 37 35 33 30 27 25 26 28
166 164 164 165 165 165 164 164 164 164 164 163 163 163 162 160 158 158 158 158 159 159 160 160 157 154 151 148 148 155 166 175 182 185 187 189 192 194 191 182 174 171 171 170 168 165 161 157 153 151 147 140 135 133 131 127 124 121 115 105 91 80 74 67 59 53 52 55 60 65 66 63 58 55 52 48 44 40 36 33 31 30 28 25 21 20
166 164 164 166 168 169 168 167 167 166 165 163 161 160 159 158 154 151 151 150 150 150 151 151 148 144 141 140 144 152 163 172 179 184 187 189 191 193 193 186 177 170 167 165 165 166 165 159 153 149 145 141 137 133 129 127 125 122 115 108 96 85 74 64 58 55 57 60 64 67 69 67 63 59 55 52 48 44 39 35 32 30 30 28 24 20
166 164 165 167 168 168 168 167 166 165 164 163 160 158 158 158 156 152 148 144 141 142 144 143 139 133 130 132 138 148 159 168 176 181 185 187 188 188 186 180 174 169 165 162 160 161 163 160 154 149 144 142 137 131 128 130 130 125 117 112 105 94 78 65 61 61 62 66 69 71 73 70 66 62 58 54 50 46 43 39 36 33 30 28 27 26
167 167 168 168 168 167 167 165 163 162 162 161 159 159 160 161 160 157 152 145 141 140 141 141 138 131 124 121 125 134 145 157 166 172 175 177 178 177 174 171 169 168 167 161 154 150 152 153 150 147 148 148 142 134 130 130 129 123 117 112 109 103 85 68 66 68 69 72 74 76 77 74 71 66 62 58 54 50 46 43 41 37 33 30 29 29
169 168 168 167 166 166 164 161 160 161 161 160 158 158 158 160 160 158 153 147 143 141 139 138 135 129 121 118 118 122 129 139 148 154 157 159 161 163 164 163 164 167 169 163 153 144 141 139 139 142 147 148 142 136 131 128 124 118 112 107 102 94 83 77 74 74 75 77 79 80 79 77 75 73 68 63 58 52 48 45 42 39 36 34 33 31
169 166 164 163 162 161 159 159 160 162 162 161 159 157 157 159 159 158 153 148 144 141 139 138 133 126 118 118 120 121 123 128 134 139 145 149 153 156 158 158 159 161 163 160 155 148 141 135 134 138 143 142 136 130 126 124 121 116 111 107 101 94 91 86 82 78 77 77 78 79 79 78 78 76 71 64 58 53 48 44 41 38 36 36 35 34
165 161 159 159 159 159 159 160 161 161 160 158 157 157 158 159 159 158 154 150 145 141 141 141 136 130 126 127 127 126 125 125 129 133 138 143 148 151 153 153 154 153 151 148 147 146 144 141 141 141 140 134 128 124 123 124 122 119 115 111 105 99 93 88 83 80 79 77 77 78 79 79 77 74 68 62 57 53 50 45 41 37 35 36 36 35
162 159 158 158 158 159 160 160 159 158 156 155 155 156 158 159 158 157 155 152 148 144 142 141 138 134 133 135 135 133 130 128 128 131 135 140 144 147 148 148 148 146 142 137 134 133 135 139 144 146 142 133 124 121 125 127 127 125 122 118 112 105 97 88 84 82 81 78 75 76 78 76 74 70 65 61 57 54 51 48 44 40 38 37 37 37
164 161 160 159 158 158 157 158 157 156 154 153 154 156 157 159 158 156 153 152 149 146 142 139 135 133 133 136 137 136 134 132 131 133 135 139 142 145 145 143 141 137 134 131 128 126 125 127 132 139 142 138 131 126 129 131 129 126 124 120 113 105 96 90 86 83 81 77 74 73 72 68 64 61 59 57 54 52 50 48 46 44 42 41 40 38
165 162 161 160 158 157 157 157 156 155 153 152 152 153 155 158 158 156 153 152 150 147 145 140 136 134 133 136 137 137 135 134 133 134 136 139 141 142 141 138 135 131 127 125 124 123 122 119 117 119 124 130 130 129 130 130 129 126 122 117 110 103 97 93 89 86 81 77 73 71 67 65 63 61 57 52 50 48 48 47 46 46 46 45 43 41
166 164 163 161 159 158 158 157 156 154 153 152 151 151 152 154 155 155 154 152 150 148 146 144 141 138 137 138 139 139 137 135 135 136 138 141 141 140 138 137 133 129 124 121 120 118 114 108 106 105 107 110 115 121 124 127 128 126 121 114 108 103 99 95 91 87 83 78 75 72 69 66 66 64 59 53 49 48 48 47 46 46 47 47 46 45
165 165 164 162 161 159 158 157 155 153 152 152 151 151 150 151 152 152 152 151 148 146 146 145 142 140 140 141 142 142 141 140 138 139 141 143 143 142 140 139 137 132 128 126 125 122 114 105 98 94 92 97 105 114 121 127 129 125 117 110 108 106 101 98 94 91 86 82 79 77 74 70 67 63 59 53 49 47 44 43 42 43 46 48 47 47